owner,sensor,date,latitude,longitude,relative_humidity,qcFlag 
WAVCIS,ioos:station:WAVCIS:CSI06:1,2011-01-01T00:00:00Z,28.8667,-90.4833,96.0,11111222 
WAVCIS,ioos:station:WAVCIS:CSI06:1,2011-01-01T01:00:00Z,28.8667,-90.4833,96.0,11111222 
WAVCIS,ioos:station:WAVCIS:CSI06:1,2011-01-01T02:00:00Z,28.8667,-90.4833,96.0,11111222 
WAVCIS,ioos:station:WAVCIS:CSI06:1,2011-01-01T03:00:00Z,28.8667,-90.4833,96.0,11111222 
WAVCIS,ioos:station:WAVCIS:CSI06:1,2011-01-01T04:00:00Z,28.8667,-90.4833,96.0,11111222 
WAVCIS,ioos:station:WAVCIS:CSI06:1,2011-01-01T05:00:00Z,28.8667,-90.4833,96.0,11111222 
WAVCIS,ioos:station:WAVCIS:CSI06:1,2011-01-01T06:00:00Z,28.8667,-90.4833,96.0,11111222 
WAVCIS,ioos:station:WAVCIS:CSI06:1,2011-01-01T07:00:00Z,28.8667,-90.4833,96.0,11111222 
WAVCIS,ioos:station:WAVCIS:CSI06:1,2011-01-01T08:00:00Z,28.8667,-90.4833,96.0,11111222 
WAVCIS,ioos:station:WAVCIS:CSI06:1,2011-01-01T09:00:00Z,28.8667,-90.4833,96.0,11111222 
WAVCIS,ioos:station:WAVCIS:CSI06:1,2011-01-01T10:00:00Z,28.8667,-90.4833,96.0,11111222 
WAVCIS,ioos:station:WAVCIS:CSI06:1,2011-01-01T11:00:00Z,28.8667,-90.4833,96.0,11111222 
WAVCIS,ioos:station:WAVCIS:CSI06:1,2011-01-01T12:00:00Z,28.8667,-90.4833,96.0,11111222 
WAVCIS,ioos:station:WAVCIS:CSI06:1,2011-01-01T13:00:00Z,28.8667,-90.4833,96.0,11111222 
WAVCIS,ioos:station:WAVCIS:CSI06:1,2011-01-01T14:00:00Z,28.8667,-90.4833,96.0,11111222 
WAVCIS,ioos:station:WAVCIS:CSI06:1,2011-01-01T15:00:00Z,28.8667,-90.4833,96.0,11111222 
WAVCIS,ioos:station:WAVCIS:CSI06:1,2011-01-01T16:00:00Z,28.8667,-90.4833,96.0,11111222 
WAVCIS,ioos:station:WAVCIS:CSI06:1,2011-01-01T17:00:00Z,28.8667,-90.4833,96.0,11111222 
WAVCIS,ioos:station:WAVCIS:CSI06:1,2011-01-01T18:00:00Z,28.8667,-90.4833,96.0,11111222 
WAVCIS,ioos:station:WAVCIS:CSI06:1,2011-01-01T19:00:00Z,28.8667,-90.4833,96.0,11111222 
WAVCIS,ioos:station:WAVCIS:CSI06:1,2011-01-01T20:00:00Z,28.8667,-90.4833,96.0,11111222 
WAVCIS,ioos:station:WAVCIS:CSI06:1,2011-01-01T21:00:00Z,28.8667,-90.4833,96.0,11111222 
WAVCIS,ioos:station:WAVCIS:CSI06:1,2011-01-01T22:00:00Z,28.8667,-90.4833,96.0,11111222 
WAVCIS,ioos:station:WAVCIS:CSI06:1,2011-01-01T23:00:00Z,28.8667,-90.4833,96.0,11111222 
WAVCIS,ioos:station:WAVCIS:CSI06:1,2011-01-02T00:00:00Z,28.8667,-90.4833,96.0,11111222 
WAVCIS,ioos:station:WAVCIS:CSI06:1,2011-01-02T01:00:00Z,28.8667,-90.4833,96.0,11111222 
WAVCIS,ioos:station:WAVCIS:CSI06:1,2011-01-02T02:00:00Z,28.8667,-90.4833,94.3,11111222 
WAVCIS,ioos:station:WAVCIS:CSI06:1,2011-01-02T03:00:00Z,28.8667,-90.4833,78.6,11111222 
WAVCIS,ioos:station:WAVCIS:CSI06:1,2011-01-02T04:00:00Z,28.8667,-90.4833,72.5,11111222 
WAVCIS,ioos:station:WAVCIS:CSI06:1,2011-01-02T05:00:00Z,28.8667,-90.4833,63.4,11111222 
WAVCIS,ioos:station:WAVCIS:CSI06:1,2011-01-02T06:00:00Z,28.8667,-90.4833,60.8,11111222 
WAVCIS,ioos:station:WAVCIS:CSI06:1,2011-01-02T07:00:00Z,28.8667,-90.4833,59.0,11111222 
WAVCIS,ioos:station:WAVCIS:CSI06:1,2011-01-02T08:00:00Z,28.8667,-90.4833,65.0,11111222 
WAVCIS,ioos:station:WAVCIS:CSI06:1,2011-01-02T09:00:00Z,28.8667,-90.4833,68.7,11111222 
WAVCIS,ioos:station:WAVCIS:CSI06:1,2011-01-02T10:00:00Z,28.8667,-90.4833,70.5,11111222 
WAVCIS,ioos:station:WAVCIS:CSI06:1,2011-01-02T11:00:00Z,28.8667,-90.4833,77.9,11111222 
WAVCIS,ioos:station:WAVCIS:CSI06:1,2011-01-02T12:00:00Z,28.8667,-90.4833,77.2,11111222 
WAVCIS,ioos:station:WAVCIS:CSI06:1,2011-01-02T13:00:00Z,28.8667,-90.4833,70.9,11111222 
WAVCIS,ioos:station:WAVCIS:CSI06:1,2011-01-02T14:00:00Z,28.8667,-90.4833,76.5,11111222 
WAVCIS,ioos:station:WAVCIS:CSI06:1,2011-01-02T15:00:00Z,28.8667,-90.4833,71.3,11111222 
WAVCIS,ioos:station:WAVCIS:CSI06:1,2011-01-02T16:00:00Z,28.8667,-90.4833,60.7,11111222 
WAVCIS,ioos:station:WAVCIS:CSI06:1,2011-01-02T17:00:00Z,28.8667,-90.4833,52.5,11111222 
WAVCIS,ioos:station:WAVCIS:CSI06:1,2011-01-02T18:00:00Z,28.8667,-90.4833,47.4,11111222 
WAVCIS,ioos:station:WAVCIS:CSI06:1,2011-01-02T19:00:00Z,28.8667,-90.4833,42.8,11111222 
WAVCIS,ioos:station:WAVCIS:CSI06:1,2011-01-02T20:00:00Z,28.8667,-90.4833,37.7,11111222 
WAVCIS,ioos:station:WAVCIS:CSI06:1,2011-01-02T21:00:00Z,28.8667,-90.4833,40.0,11111222 
WAVCIS,ioos:station:WAVCIS:CSI06:1,2011-01-02T22:00:00Z,28.8667,-90.4833,43.3,11111222 
WAVCIS,ioos:station:WAVCIS:CSI06:1,2011-01-02T23:00:00Z,28.8667,-90.4833,40.1,11111222 
WAVCIS,ioos:station:WAVCIS:CSI06:1,2011-01-03T00:00:00Z,28.8667,-90.4833,40.3,11111222 
WAVCIS,ioos:station:WAVCIS:CSI06:1,2011-01-03T01:00:00Z,28.8667,-90.4833,37.5,11111222 
WAVCIS,ioos:station:WAVCIS:CSI06:1,2011-01-03T02:00:00Z,28.8667,-90.4833,36.5,11111222 
WAVCIS,ioos:station:WAVCIS:CSI06:1,2011-01-03T03:00:00Z,28.8667,-90.4833,37.3,11111222 
WAVCIS,ioos:station:WAVCIS:CSI06:1,2011-01-03T04:00:00Z,28.8667,-90.4833,34.5,11111222 
WAVCIS,ioos:station:WAVCIS:CSI06:1,2011-01-03T05:00:00Z,28.8667,-90.4833,39.6,11111222 
WAVCIS,ioos:station:WAVCIS:CSI06:1,2011-01-03T06:00:00Z,28.8667,-90.4833,47.4,11111222 
WAVCIS,ioos:station:WAVCIS:CSI06:1,2011-01-03T07:00:00Z,28.8667,-90.4833,52.8,11111222 
WAVCIS,ioos:station:WAVCIS:CSI06:1,2011-01-03T08:00:00Z,28.8667,-90.4833,60.9,11111222 
WAVCIS,ioos:station:WAVCIS:CSI06:1,2011-01-03T09:00:00Z,28.8667,-90.4833,65.7,11111222 
WAVCIS,ioos:station:WAVCIS:CSI06:1,2011-01-03T10:00:00Z,28.8667,-90.4833,74.8,11111222 
WAVCIS,ioos:station:WAVCIS:CSI06:1,2011-01-03T11:00:00Z,28.8667,-90.4833,83.4,11111222 
WAVCIS,ioos:station:WAVCIS:CSI06:1,2011-01-03T12:00:00Z,28.8667,-90.4833,75.6,11111222 
WAVCIS,ioos:station:WAVCIS:CSI06:1,2011-01-03T13:00:00Z,28.8667,-90.4833,80.0,11111222 
WAVCIS,ioos:station:WAVCIS:CSI06:1,2011-01-03T14:00:00Z,28.8667,-90.4833,83.8,11111222 
WAVCIS,ioos:station:WAVCIS:CSI06:1,2011-01-03T15:00:00Z,28.8667,-90.4833,85.3,11111222 
WAVCIS,ioos:station:WAVCIS:CSI06:1,2011-01-03T16:00:00Z,28.8667,-90.4833,87.8,11111222 
WAVCIS,ioos:station:WAVCIS:CSI06:1,2011-01-03T17:00:00Z,28.8667,-90.4833,90.9,11111222 
WAVCIS,ioos:station:WAVCIS:CSI06:1,2011-01-03T18:00:00Z,28.8667,-90.4833,94.2,11111222 
WAVCIS,ioos:station:WAVCIS:CSI06:1,2011-01-03T19:00:00Z,28.8667,-90.4833,96.0,11111222 
WAVCIS,ioos:station:WAVCIS:CSI06:1,2011-01-03T20:00:00Z,28.8667,-90.4833,96.0,11111222 
WAVCIS,ioos:station:WAVCIS:CSI06:1,2011-01-03T21:00:00Z,28.8667,-90.4833,96.0,11111222 
WAVCIS,ioos:station:WAVCIS:CSI06:1,2011-01-03T22:00:00Z,28.8667,-90.4833,96.0,11111222 
WAVCIS,ioos:station:WAVCIS:CSI06:1,2011-01-03T23:00:00Z,28.8667,-90.4833,96.0,11111222 
WAVCIS,ioos:station:WAVCIS:CSI06:1,2011-01-04T00:00:00Z,28.8667,-90.4833,96.0,11111222 
WAVCIS,ioos:station:WAVCIS:CSI06:1,2011-01-04T01:00:00Z,28.8667,-90.4833,96.0,11111222 
WAVCIS,ioos:station:WAVCIS:CSI06:1,2011-01-04T02:00:00Z,28.8667,-90.4833,96.0,11111222 
WAVCIS,ioos:station:WAVCIS:CSI06:1,2011-01-04T03:00:00Z,28.8667,-90.4833,96.0,11111222 
WAVCIS,ioos:station:WAVCIS:CSI06:1,2011-01-04T04:00:00Z,28.8667,-90.4833,96.0,11111222 
WAVCIS,ioos:station:WAVCIS:CSI06:1,2011-01-04T05:00:00Z,28.8667,-90.4833,96.0,11111222 
WAVCIS,ioos:station:WAVCIS:CSI06:1,2011-01-04T06:00:00Z,28.8667,-90.4833,96.0,11111222 
WAVCIS,ioos:station:WAVCIS:CSI06:1,2011-01-04T07:00:00Z,28.8667,-90.4833,96.0,11111222 
WAVCIS,ioos:station:WAVCIS:CSI06:1,2011-01-04T08:00:00Z,28.8667,-90.4833,96.0,11111222 
WAVCIS,ioos:station:WAVCIS:CSI06:1,2011-01-04T09:00:00Z,28.8667,-90.4833,96.0,11111222 
WAVCIS,ioos:station:WAVCIS:CSI06:1,2011-01-04T10:00:00Z,28.8667,-90.4833,96.0,11111222 
WAVCIS,ioos:station:WAVCIS:CSI06:1,2011-01-04T11:00:00Z,28.8667,-90.4833,96.0,11111222 
WAVCIS,ioos:station:WAVCIS:CSI06:1,2011-01-04T12:00:00Z,28.8667,-90.4833,96.0,11111222 
WAVCIS,ioos:station:WAVCIS:CSI06:1,2011-01-04T13:00:00Z,28.8667,-90.4833,96.0,11111222 
WAVCIS,ioos:station:WAVCIS:CSI06:1,2011-01-04T14:00:00Z,28.8667,-90.4833,96.0,11111222 
WAVCIS,ioos:station:WAVCIS:CSI06:1,2011-01-04T15:00:00Z,28.8667,-90.4833,96.0,11111222 
WAVCIS,ioos:station:WAVCIS:CSI06:1,2011-01-04T16:00:00Z,28.8667,-90.4833,96.0,11111222 
WAVCIS,ioos:station:WAVCIS:CSI06:1,2011-01-04T17:00:00Z,28.8667,-90.4833,96.0,11111222 
WAVCIS,ioos:station:WAVCIS:CSI06:1,2011-01-04T18:00:00Z,28.8667,-90.4833,96.0,11111222 
WAVCIS,ioos:station:WAVCIS:CSI06:1,2011-01-04T19:00:00Z,28.8667,-90.4833,96.0,11111222 
WAVCIS,ioos:station:WAVCIS:CSI06:1,2011-01-04T20:00:00Z,28.8667,-90.4833,96.0,11111222 
WAVCIS,ioos:station:WAVCIS:CSI06:1,2011-01-04T21:00:00Z,28.8667,-90.4833,96.0,11111222 
WAVCIS,ioos:station:WAVCIS:CSI06:1,2011-01-04T22:00:00Z,28.8667,-90.4833,96.0,11111222 
WAVCIS,ioos:station:WAVCIS:CSI06:1,2011-01-04T23:00:00Z,28.8667,-90.4833,96.0,11111222 
WAVCIS,ioos:station:WAVCIS:CSI06:1,2011-01-05T00:00:00Z,28.8667,-90.4833,96.0,11111222 
WAVCIS,ioos:station:WAVCIS:CSI06:1,2011-01-05T01:00:00Z,28.8667,-90.4833,96.0,11111222 
WAVCIS,ioos:station:WAVCIS:CSI06:1,2011-01-05T02:00:00Z,28.8667,-90.4833,96.0,11111222 
WAVCIS,ioos:station:WAVCIS:CSI06:1,2011-01-05T03:00:00Z,28.8667,-90.4833,96.0,11111222 
WAVCIS,ioos:station:WAVCIS:CSI06:1,2011-01-05T04:00:00Z,28.8667,-90.4833,96.0,11111222 
WAVCIS,ioos:station:WAVCIS:CSI06:1,2011-01-05T05:00:00Z,28.8667,-90.4833,96.0,11111222 
WAVCIS,ioos:station:WAVCIS:CSI06:1,2011-01-05T06:00:00Z,28.8667,-90.4833,96.0,11111222 
WAVCIS,ioos:station:WAVCIS:CSI06:1,2011-01-05T07:00:00Z,28.8667,-90.4833,96.0,11111222 
WAVCIS,ioos:station:WAVCIS:CSI06:1,2011-01-05T08:00:00Z,28.8667,-90.4833,96.0,11111222 
WAVCIS,ioos:station:WAVCIS:CSI06:1,2011-01-05T09:00:00Z,28.8667,-90.4833,96.0,11111222 
WAVCIS,ioos:station:WAVCIS:CSI06:1,2011-01-05T10:00:00Z,28.8667,-90.4833,96.0,11111222 
WAVCIS,ioos:station:WAVCIS:CSI06:1,2011-01-05T11:00:00Z,28.8667,-90.4833,96.0,11111222 
WAVCIS,ioos:station:WAVCIS:CSI06:1,2011-01-05T12:00:00Z,28.8667,-90.4833,96.0,11111222 
WAVCIS,ioos:station:WAVCIS:CSI06:1,2011-01-05T13:00:00Z,28.8667,-90.4833,96.0,11111222 
WAVCIS,ioos:station:WAVCIS:CSI06:1,2011-01-05T14:00:00Z,28.8667,-90.4833,96.0,11111222 
WAVCIS,ioos:station:WAVCIS:CSI06:1,2011-01-05T15:00:00Z,28.8667,-90.4833,96.0,11111222 
WAVCIS,ioos:station:WAVCIS:CSI06:1,2011-01-05T16:00:00Z,28.8667,-90.4833,96.0,11111222 
WAVCIS,ioos:station:WAVCIS:CSI06:1,2011-01-05T17:00:00Z,28.8667,-90.4833,96.0,11111222 
WAVCIS,ioos:station:WAVCIS:CSI06:1,2011-01-05T18:00:00Z,28.8667,-90.4833,96.0,11111222 
WAVCIS,ioos:station:WAVCIS:CSI06:1,2011-01-05T19:00:00Z,28.8667,-90.4833,96.0,11111222 
WAVCIS,ioos:station:WAVCIS:CSI06:1,2011-01-05T20:00:00Z,28.8667,-90.4833,96.0,11111222 
WAVCIS,ioos:station:WAVCIS:CSI06:1,2011-01-05T21:00:00Z,28.8667,-90.4833,96.0,11111222 
WAVCIS,ioos:station:WAVCIS:CSI06:1,2011-01-05T22:00:00Z,28.8667,-90.4833,96.0,11111222 
WAVCIS,ioos:station:WAVCIS:CSI06:1,2011-01-05T23:00:00Z,28.8667,-90.4833,96.0,11111222 
WAVCIS,ioos:station:WAVCIS:CSI06:1,2011-01-06T00:00:00Z,28.8667,-90.4833,96.0,11111222 
WAVCIS,ioos:station:WAVCIS:CSI06:1,2011-01-06T01:00:00Z,28.8667,-90.4833,96.0,11111222 
WAVCIS,ioos:station:WAVCIS:CSI06:1,2011-01-06T02:00:00Z,28.8667,-90.4833,96.0,11111222 
WAVCIS,ioos:station:WAVCIS:CSI06:1,2011-01-06T03:00:00Z,28.8667,-90.4833,96.0,11111222 
WAVCIS,ioos:station:WAVCIS:CSI06:1,2011-01-06T04:00:00Z,28.8667,-90.4833,96.0,11111222 
WAVCIS,ioos:station:WAVCIS:CSI06:1,2011-01-06T05:00:00Z,28.8667,-90.4833,96.0,11111222 
WAVCIS,ioos:station:WAVCIS:CSI06:1,2011-01-06T06:00:00Z,28.8667,-90.4833,96.0,11111222 
WAVCIS,ioos:station:WAVCIS:CSI06:1,2011-01-06T07:00:00Z,28.8667,-90.4833,96.0,11111222 
WAVCIS,ioos:station:WAVCIS:CSI06:1,2011-01-06T08:00:00Z,28.8667,-90.4833,96.0,11111222 
WAVCIS,ioos:station:WAVCIS:CSI06:1,2011-01-06T09:00:00Z,28.8667,-90.4833,83.6,11111222 
WAVCIS,ioos:station:WAVCIS:CSI06:1,2011-01-06T10:00:00Z,28.8667,-90.4833,96.0,11111222 
WAVCIS,ioos:station:WAVCIS:CSI06:1,2011-01-06T11:00:00Z,28.8667,-90.4833,94.3,11111222 
WAVCIS,ioos:station:WAVCIS:CSI06:1,2011-01-06T12:00:00Z,28.8667,-90.4833,90.0,11111222 
WAVCIS,ioos:station:WAVCIS:CSI06:1,2011-01-06T13:00:00Z,28.8667,-90.4833,87.3,11111222 
WAVCIS,ioos:station:WAVCIS:CSI06:1,2011-01-06T14:00:00Z,28.8667,-90.4833,84.0,11111222 
WAVCIS,ioos:station:WAVCIS:CSI06:1,2011-01-06T15:00:00Z,28.8667,-90.4833,85.5,11111222 
WAVCIS,ioos:station:WAVCIS:CSI06:1,2011-01-06T16:00:00Z,28.8667,-90.4833,95.3,11111222 
WAVCIS,ioos:station:WAVCIS:CSI06:1,2011-01-06T17:00:00Z,28.8667,-90.4833,94.8,11111222 
WAVCIS,ioos:station:WAVCIS:CSI06:1,2011-01-06T18:00:00Z,28.8667,-90.4833,89.4,11111222 
WAVCIS,ioos:station:WAVCIS:CSI06:1,2011-01-06T19:00:00Z,28.8667,-90.4833,69.4,11111222 
WAVCIS,ioos:station:WAVCIS:CSI06:1,2011-01-06T20:00:00Z,28.8667,-90.4833,66.0,11111222 
WAVCIS,ioos:station:WAVCIS:CSI06:1,2011-01-06T21:00:00Z,28.8667,-90.4833,65.5,11111222 
WAVCIS,ioos:station:WAVCIS:CSI06:1,2011-01-06T22:00:00Z,28.8667,-90.4833,56.7,11111222 
WAVCIS,ioos:station:WAVCIS:CSI06:1,2011-01-06T23:00:00Z,28.8667,-90.4833,56.5,11111222 
WAVCIS,ioos:station:WAVCIS:CSI06:1,2011-01-07T00:00:00Z,28.8667,-90.4833,54.5,11111222 
WAVCIS,ioos:station:WAVCIS:CSI06:1,2011-01-07T01:00:00Z,28.8667,-90.4833,56.0,11111222 
WAVCIS,ioos:station:WAVCIS:CSI06:1,2011-01-07T02:00:00Z,28.8667,-90.4833,59.5,11111222 
WAVCIS,ioos:station:WAVCIS:CSI06:1,2011-01-07T03:00:00Z,28.8667,-90.4833,64.4,11111222 
WAVCIS,ioos:station:WAVCIS:CSI06:1,2011-01-07T04:00:00Z,28.8667,-90.4833,58.1,11111222 
WAVCIS,ioos:station:WAVCIS:CSI06:1,2011-01-07T05:00:00Z,28.8667,-90.4833,73.8,11111222 
WAVCIS,ioos:station:WAVCIS:CSI06:1,2011-01-07T06:00:00Z,28.8667,-90.4833,62.1,11111222 
WAVCIS,ioos:station:WAVCIS:CSI06:1,2011-01-07T07:00:00Z,28.8667,-90.4833,54.8,11111222 
WAVCIS,ioos:station:WAVCIS:CSI06:1,2011-01-07T08:00:00Z,28.8667,-90.4833,53.4,11111222 
WAVCIS,ioos:station:WAVCIS:CSI06:1,2011-01-07T09:00:00Z,28.8667,-90.4833,48.1,11111222 
WAVCIS,ioos:station:WAVCIS:CSI06:1,2011-01-07T10:00:00Z,28.8667,-90.4833,48.2,11111222 
WAVCIS,ioos:station:WAVCIS:CSI06:1,2011-01-07T11:00:00Z,28.8667,-90.4833,44.1,11111222 
WAVCIS,ioos:station:WAVCIS:CSI06:1,2011-01-07T12:00:00Z,28.8667,-90.4833,43.8,11111222 
WAVCIS,ioos:station:WAVCIS:CSI06:1,2011-01-07T13:00:00Z,28.8667,-90.4833,47.1,11111222 
WAVCIS,ioos:station:WAVCIS:CSI06:1,2011-01-07T14:00:00Z,28.8667,-90.4833,51.0,11111222 
WAVCIS,ioos:station:WAVCIS:CSI06:1,2011-01-07T15:00:00Z,28.8667,-90.4833,60.3,11111222 
WAVCIS,ioos:station:WAVCIS:CSI06:1,2011-01-07T16:00:00Z,28.8667,-90.4833,49.2,11111222 
WAVCIS,ioos:station:WAVCIS:CSI06:1,2011-01-07T17:00:00Z,28.8667,-90.4833,49.0,11111222 
WAVCIS,ioos:station:WAVCIS:CSI06:1,2011-01-07T18:00:00Z,28.8667,-90.4833,47.6,11111222 
WAVCIS,ioos:station:WAVCIS:CSI06:1,2011-01-07T19:00:00Z,28.8667,-90.4833,45.6,11111222 
WAVCIS,ioos:station:WAVCIS:CSI06:1,2011-01-07T20:00:00Z,28.8667,-90.4833,44.1,11111222 
WAVCIS,ioos:station:WAVCIS:CSI06:1,2011-01-07T21:00:00Z,28.8667,-90.4833,45.1,11111222 
WAVCIS,ioos:station:WAVCIS:CSI06:1,2011-01-07T22:00:00Z,28.8667,-90.4833,48.5,11111222 
WAVCIS,ioos:station:WAVCIS:CSI06:1,2011-01-07T23:00:00Z,28.8667,-90.4833,58.0,11111222 
WAVCIS,ioos:station:WAVCIS:CSI06:1,2011-01-08T00:00:00Z,28.8667,-90.4833,79.6,11111222 
WAVCIS,ioos:station:WAVCIS:CSI06:1,2011-01-08T01:00:00Z,28.8667,-90.4833,92.6,11111222 
WAVCIS,ioos:station:WAVCIS:CSI06:1,2011-01-08T02:00:00Z,28.8667,-90.4833,96.0,11111222 
WAVCIS,ioos:station:WAVCIS:CSI06:1,2011-01-08T03:00:00Z,28.8667,-90.4833,96.0,11111222 
WAVCIS,ioos:station:WAVCIS:CSI06:1,2011-01-08T04:00:00Z,28.8667,-90.4833,96.0,11111222 
WAVCIS,ioos:station:WAVCIS:CSI06:1,2011-01-08T05:00:00Z,28.8667,-90.4833,96.0,11111222 
WAVCIS,ioos:station:WAVCIS:CSI06:1,2011-01-08T06:00:00Z,28.8667,-90.4833,96.0,11111222 
WAVCIS,ioos:station:WAVCIS:CSI06:1,2011-01-08T07:00:00Z,28.8667,-90.4833,96.0,11111222 
WAVCIS,ioos:station:WAVCIS:CSI06:1,2011-01-08T08:00:00Z,28.8667,-90.4833,90.5,11111222 
WAVCIS,ioos:station:WAVCIS:CSI06:1,2011-01-08T09:00:00Z,28.8667,-90.4833,84.7,11111222 
WAVCIS,ioos:station:WAVCIS:CSI06:1,2011-01-08T10:00:00Z,28.8667,-90.4833,90.7,11111222 
WAVCIS,ioos:station:WAVCIS:CSI06:1,2011-01-08T11:00:00Z,28.8667,-90.4833,92.3,11111222 
WAVCIS,ioos:station:WAVCIS:CSI06:1,2011-01-08T12:00:00Z,28.8667,-90.4833,68.8,11111222 
WAVCIS,ioos:station:WAVCIS:CSI06:1,2011-01-08T13:00:00Z,28.8667,-90.4833,47.8,11111222 
WAVCIS,ioos:station:WAVCIS:CSI06:1,2011-01-08T14:00:00Z,28.8667,-90.4833,43.1,11111222 
WAVCIS,ioos:station:WAVCIS:CSI06:1,2011-01-08T15:00:00Z,28.8667,-90.4833,44.6,11111222 
WAVCIS,ioos:station:WAVCIS:CSI06:1,2011-01-08T16:00:00Z,28.8667,-90.4833,40.8,11111222 
WAVCIS,ioos:station:WAVCIS:CSI06:1,2011-01-08T17:00:00Z,28.8667,-90.4833,38.4,11111222 
WAVCIS,ioos:station:WAVCIS:CSI06:1,2011-01-08T18:00:00Z,28.8667,-90.4833,34.4,11111222 
WAVCIS,ioos:station:WAVCIS:CSI06:1,2011-01-08T19:00:00Z,28.8667,-90.4833,31.0,11111222 
WAVCIS,ioos:station:WAVCIS:CSI06:1,2011-01-08T20:00:00Z,28.8667,-90.4833,32.8,11111222 
WAVCIS,ioos:station:WAVCIS:CSI06:1,2011-01-08T21:00:00Z,28.8667,-90.4833,31.2,11111222 
WAVCIS,ioos:station:WAVCIS:CSI06:1,2011-01-08T22:00:00Z,28.8667,-90.4833,32.2,11111222 
WAVCIS,ioos:station:WAVCIS:CSI06:1,2011-01-08T23:00:00Z,28.8667,-90.4833,36.6,11111222 
WAVCIS,ioos:station:WAVCIS:CSI06:1,2011-01-09T00:00:00Z,28.8667,-90.4833,40.6,11111222 
WAVCIS,ioos:station:WAVCIS:CSI06:1,2011-01-09T01:00:00Z,28.8667,-90.4833,44.4,11111222 
WAVCIS,ioos:station:WAVCIS:CSI06:1,2011-01-09T02:00:00Z,28.8667,-90.4833,47.2,11111222 
WAVCIS,ioos:station:WAVCIS:CSI06:1,2011-01-09T03:00:00Z,28.8667,-90.4833,42.9,11111222 
WAVCIS,ioos:station:WAVCIS:CSI06:1,2011-01-09T04:00:00Z,28.8667,-90.4833,49.1,11111222 
WAVCIS,ioos:station:WAVCIS:CSI06:1,2011-01-09T05:00:00Z,28.8667,-90.4833,48.8,11111222 
WAVCIS,ioos:station:WAVCIS:CSI06:1,2011-01-09T06:00:00Z,28.8667,-90.4833,39.9,11111222 
WAVCIS,ioos:station:WAVCIS:CSI06:1,2011-01-09T07:00:00Z,28.8667,-90.4833,47.3,11111222 
WAVCIS,ioos:station:WAVCIS:CSI06:1,2011-01-09T08:00:00Z,28.8667,-90.4833,48.0,11111222 
WAVCIS,ioos:station:WAVCIS:CSI06:1,2011-01-09T09:00:00Z,28.8667,-90.4833,53.7,11111222 
WAVCIS,ioos:station:WAVCIS:CSI06:1,2011-01-09T10:00:00Z,28.8667,-90.4833,60.8,11111222 
WAVCIS,ioos:station:WAVCIS:CSI06:1,2011-01-09T11:00:00Z,28.8667,-90.4833,68.9,11111222 
WAVCIS,ioos:station:WAVCIS:CSI06:1,2011-01-09T12:00:00Z,28.8667,-90.4833,75.9,11111222 
WAVCIS,ioos:station:WAVCIS:CSI06:1,2011-01-09T13:00:00Z,28.8667,-90.4833,88.1,11111222 
WAVCIS,ioos:station:WAVCIS:CSI06:1,2011-01-09T14:00:00Z,28.8667,-90.4833,86.0,11111222 
WAVCIS,ioos:station:WAVCIS:CSI06:1,2011-01-09T15:00:00Z,28.8667,-90.4833,86.8,11111222 
WAVCIS,ioos:station:WAVCIS:CSI06:1,2011-01-09T16:00:00Z,28.8667,-90.4833,84.0,11111222 
WAVCIS,ioos:station:WAVCIS:CSI06:1,2011-01-09T17:00:00Z,28.8667,-90.4833,85.1,11111222 
WAVCIS,ioos:station:WAVCIS:CSI06:1,2011-01-09T18:00:00Z,28.8667,-90.4833,93.3,11111222 
WAVCIS,ioos:station:WAVCIS:CSI06:1,2011-01-09T19:00:00Z,28.8667,-90.4833,96.0,11111222 
WAVCIS,ioos:station:WAVCIS:CSI06:1,2011-01-09T20:00:00Z,28.8667,-90.4833,96.0,11111222 
WAVCIS,ioos:station:WAVCIS:CSI06:1,2011-01-09T21:00:00Z,28.8667,-90.4833,96.0,11111222 
WAVCIS,ioos:station:WAVCIS:CSI06:1,2011-01-09T22:00:00Z,28.8667,-90.4833,96.0,11111222 
WAVCIS,ioos:station:WAVCIS:CSI06:1,2011-01-09T23:00:00Z,28.8667,-90.4833,96.0,11111222 
WAVCIS,ioos:station:WAVCIS:CSI06:1,2011-01-10T00:00:00Z,28.8667,-90.4833,96.0,11111222 
WAVCIS,ioos:station:WAVCIS:CSI06:1,2011-01-10T01:00:00Z,28.8667,-90.4833,96.0,11111222 
WAVCIS,ioos:station:WAVCIS:CSI06:1,2011-01-10T02:00:00Z,28.8667,-90.4833,96.0,11111222 
WAVCIS,ioos:station:WAVCIS:CSI06:1,2011-01-10T03:00:00Z,28.8667,-90.4833,96.0,11111222 
WAVCIS,ioos:station:WAVCIS:CSI06:1,2011-01-10T04:00:00Z,28.8667,-90.4833,96.0,11111222 
WAVCIS,ioos:station:WAVCIS:CSI06:1,2011-01-10T05:00:00Z,28.8667,-90.4833,96.0,11111222 
WAVCIS,ioos:station:WAVCIS:CSI06:1,2011-01-10T06:00:00Z,28.8667,-90.4833,96.0,11111222 
WAVCIS,ioos:station:WAVCIS:CSI06:1,2011-01-10T07:00:00Z,28.8667,-90.4833,96.0,11111222 
WAVCIS,ioos:station:WAVCIS:CSI06:1,2011-01-10T08:00:00Z,28.8667,-90.4833,96.0,11111222 
WAVCIS,ioos:station:WAVCIS:CSI06:1,2011-01-10T09:00:00Z,28.8667,-90.4833,96.0,11111222 
WAVCIS,ioos:station:WAVCIS:CSI06:1,2011-01-10T10:00:00Z,28.8667,-90.4833,96.0,11111222 
WAVCIS,ioos:station:WAVCIS:CSI06:1,2011-01-10T11:00:00Z,28.8667,-90.4833,96.0,11111222 
WAVCIS,ioos:station:WAVCIS:CSI06:1,2011-01-10T12:00:00Z,28.8667,-90.4833,96.0,11111222 
WAVCIS,ioos:station:WAVCIS:CSI06:1,2011-01-10T13:00:00Z,28.8667,-90.4833,96.0,11111222 
WAVCIS,ioos:station:WAVCIS:CSI06:1,2011-01-10T14:00:00Z,28.8667,-90.4833,96.0,11111222 
WAVCIS,ioos:station:WAVCIS:CSI06:1,2011-01-10T15:00:00Z,28.8667,-90.4833,96.0,11111222 
WAVCIS,ioos:station:WAVCIS:CSI06:1,2011-01-10T16:00:00Z,28.8667,-90.4833,96.0,11111222 
WAVCIS,ioos:station:WAVCIS:CSI06:1,2011-01-10T17:00:00Z,28.8667,-90.4833,96.0,11111222 
WAVCIS,ioos:station:WAVCIS:CSI06:1,2011-01-10T18:00:00Z,28.8667,-90.4833,96.0,11111222 
WAVCIS,ioos:station:WAVCIS:CSI06:1,2011-01-10T19:00:00Z,28.8667,-90.4833,96.0,11111222 
WAVCIS,ioos:station:WAVCIS:CSI06:1,2011-01-10T20:00:00Z,28.8667,-90.4833,96.0,11111222 
WAVCIS,ioos:station:WAVCIS:CSI06:1,2011-01-10T21:00:00Z,28.8667,-90.4833,96.0,11111222 
WAVCIS,ioos:station:WAVCIS:CSI06:1,2011-01-10T22:00:00Z,28.8667,-90.4833,96.0,11111222 
WAVCIS,ioos:station:WAVCIS:CSI06:1,2011-01-10T23:00:00Z,28.8667,-90.4833,96.0,11111222 
WAVCIS,ioos:station:WAVCIS:CSI06:1,2011-01-11T00:00:00Z,28.8667,-90.4833,96.0,11111222 
WAVCIS,ioos:station:WAVCIS:CSI06:1,2011-01-11T01:00:00Z,28.8667,-90.4833,96.0,11111222 
WAVCIS,ioos:station:WAVCIS:CSI06:1,2011-01-11T02:00:00Z,28.8667,-90.4833,96.0,11111222 
WAVCIS,ioos:station:WAVCIS:CSI06:1,2011-01-11T03:00:00Z,28.8667,-90.4833,96.0,11111222 
WAVCIS,ioos:station:WAVCIS:CSI06:1,2011-01-11T04:00:00Z,28.8667,-90.4833,96.0,11111222 
WAVCIS,ioos:station:WAVCIS:CSI06:1,2011-01-11T05:00:00Z,28.8667,-90.4833,96.0,11111222 
WAVCIS,ioos:station:WAVCIS:CSI06:1,2011-01-11T06:00:00Z,28.8667,-90.4833,96.0,11111222 
WAVCIS,ioos:station:WAVCIS:CSI06:1,2011-01-11T07:00:00Z,28.8667,-90.4833,96.0,11111222 
WAVCIS,ioos:station:WAVCIS:CSI06:1,2011-01-11T08:00:00Z,28.8667,-90.4833,96.0,11111222 
WAVCIS,ioos:station:WAVCIS:CSI06:1,2011-01-11T09:00:00Z,28.8667,-90.4833,96.0,11111222 
WAVCIS,ioos:station:WAVCIS:CSI06:1,2011-01-11T10:00:00Z,28.8667,-90.4833,96.0,11111222 
WAVCIS,ioos:station:WAVCIS:CSI06:1,2011-01-11T11:00:00Z,28.8667,-90.4833,96.0,11111222 
WAVCIS,ioos:station:WAVCIS:CSI06:1,2011-01-11T12:00:00Z,28.8667,-90.4833,96.0,11111222 
WAVCIS,ioos:station:WAVCIS:CSI06:1,2011-01-11T13:00:00Z,28.8667,-90.4833,96.0,11111222 
WAVCIS,ioos:station:WAVCIS:CSI06:1,2011-01-11T14:00:00Z,28.8667,-90.4833,96.0,11111222 
WAVCIS,ioos:station:WAVCIS:CSI06:1,2011-01-11T15:00:00Z,28.8667,-90.4833,96.0,11111222 
WAVCIS,ioos:station:WAVCIS:CSI06:1,2011-01-11T16:00:00Z,28.8667,-90.4833,96.0,11111222 
WAVCIS,ioos:station:WAVCIS:CSI06:1,2011-01-11T17:00:00Z,28.8667,-90.4833,96.0,11111222 
WAVCIS,ioos:station:WAVCIS:CSI06:1,2011-01-11T18:00:00Z,28.8667,-90.4833,96.0,11111222 
WAVCIS,ioos:station:WAVCIS:CSI06:1,2011-01-11T19:00:00Z,28.8667,-90.4833,93.9,11111222 
WAVCIS,ioos:station:WAVCIS:CSI06:1,2011-01-11T20:00:00Z,28.8667,-90.4833,87.5,11111222 
WAVCIS,ioos:station:WAVCIS:CSI06:1,2011-01-11T21:00:00Z,28.8667,-90.4833,79.8,11111222 
WAVCIS,ioos:station:WAVCIS:CSI06:1,2011-01-11T22:00:00Z,28.8667,-90.4833,70.1,11111222 
WAVCIS,ioos:station:WAVCIS:CSI06:1,2011-01-11T23:00:00Z,28.8667,-90.4833,67.1,11111222 
WAVCIS,ioos:station:WAVCIS:CSI06:1,2011-01-12T00:00:00Z,28.8667,-90.4833,55.6,11111222 
WAVCIS,ioos:station:WAVCIS:CSI06:1,2011-01-12T01:00:00Z,28.8667,-90.4833,46.7,11111222 
WAVCIS,ioos:station:WAVCIS:CSI06:1,2011-01-12T02:00:00Z,28.8667,-90.4833,46.8,11111222 
WAVCIS,ioos:station:WAVCIS:CSI06:1,2011-01-12T03:00:00Z,28.8667,-90.4833,48.0,11111222 
WAVCIS,ioos:station:WAVCIS:CSI06:1,2011-01-12T04:00:00Z,28.8667,-90.4833,45.9,11111222 
WAVCIS,ioos:station:WAVCIS:CSI06:1,2011-01-12T05:00:00Z,28.8667,-90.4833,52.4,11111222 
WAVCIS,ioos:station:WAVCIS:CSI06:1,2011-01-12T06:00:00Z,28.8667,-90.4833,53.4,11111222 
WAVCIS,ioos:station:WAVCIS:CSI06:1,2011-01-12T07:00:00Z,28.8667,-90.4833,59.7,11111222 